Regional Weather Roundup
Issued by NWS

Home | Current Version | Previous Version | Text Only | Print | Product List | Glossary Off
Versions: 1 2 3 4 5 6 7 8 9 10 11 12 13 14 15 16 17 18 19 20 21 22 23 24 25 26 27

000
ASUS42 KTBW 271116
RWRFL
FLORIDA REGIONAL WEATHER ROUNDUP
NATIONAL WEATHER SERVICE TAMPA BAY RUSKIN FL
700 AM EDT SAT AUG 27 2016

NOTE: "FAIR" INDICATES FEW OR NO CLOUDS BELOW 12,000 FEET WITH NO
SIGNIFICANT WEATHER AND/OR OBSTRUCTIONS TO VISIBILITY.

FLZ001>010-012>015-112-114-115-271200-
PANHANDLE FLORIDA

CITY           SKY/WX    TMP DP  RH WIND       PRES   REMARKS
PENSACOLA      CLEAR     76  73  91 N5        29.99R
PENSACOLA NAS  CLEAR     76  73  91 N5        29.97S
MILTON NAS     CLOUDY    72  71  97 NE5       30.01
CRESTVIEW      PTCLDY    69  68  96 NE3       30.03R
DUKE FIELD     MOCLDY    71  69  95 CALM      30.00R
VALPARAISO     MOCLDY    77  70  79 NE7       30.00R
MARY ESTHER    PTCLDY    75  73  93 NE7       29.98R
TRI COUNTY     FAIR      71  69  93 CALM      30.03R
PANAMA CITY    FAIR      74  70  87 NE5       29.99R
TYNDALL AFB    CLEAR     76  72  87 NE5       29.99R
APALACHICOLA   MOCLDY    83  77  82 E5        29.97R

STATION/POSITION SKY/WX   TEMP    WIND        PRES    WAVE   SWELL
                          AIR SEA DIR/SP/G            HT/PER HT/PER
                          (F)     (DEG/KT/KT) (MB)    (FT/S) (FT/S)
30.1N   87.6W              83 86   30/ 12/ 14 1014.5F   2/ 6   2/ 6
29.2N   88.2W              84 86   80/  6/  8 1013.9R
28.8N   86.0W              84 85  140/  8/ 10 1014.3R   3/ 5   3/ 5
PANAMA CITY BEAC           78 86   70/  6/  9 1015.4R
TOWER C                    82     100/ 14/ 14 1015.2R
28.5N   84.5W              85 86  100/ 14/ 16 1013.7R   3/ 5

$$
FLZ011-016>038-118-127-128-134-139-239-271200-
NORTH FLORIDA

CITY           SKY/WX    TMP DP  RH WIND       PRES   REMARKS
MARIANNA       CLEAR     71  70  96 NE5       30.01R
TALLAHASSEE    PTCLDY    76  72  87 NE5       30.00R
PERRY          PTCLDY    73  70  89 CALM      30.00R
CROSS CITY     PTCLDY    73  70  88 NE5       29.99R
LAKE CITY      FAIR      70  70 100 NE5       30.02R
GAINESVILLE    PTCLDY    71  68  90 NE5       30.00R
MAYPORT NAS    PTCLDY    80  75  84 NE18      29.99R
JACKSONVILLE   CLOUDY    72  71  97 N5        30.00R
JAX NAS        CLOUDY    78  71  79 NW6       30.01R
FERNANDINA BEA FAIR      82  75  78 NE9       29.99R
ST AUGUSTINE   CLOUDY    81  74  79 NE15      30.00R
PALM COAST     PTCLDY    75  73  94 CALM      29.98R

STATION/POSITION SKY/WX   TEMP    WIND        PRES    WAVE   SWELL
                          AIR SEA DIR/SP/G            HT/PER HT/PER
                          (F)     (DEG/KT/KT) (MB)    (FT/S) (FT/S)
SHELL POINT                79      40/  4/  7 1013.6
KEATON BEACH               73      40/  4/  7 1015.1R
CEDAR KEY                  77      50/ 12/ 14 1015.2R
FERNANDINA                 81 86   30/  5/  8 1015.5F
30.7N   81.3W                 84                N/A     4/12   2/12
MAYPORT                    82 84   40/ 15/ 17 1015.6F
31.4N   80.9W              82 85   50/ 16/ 19 1016.0R   4/11   3/11
ST AUGUSTINE               81 83   30/ 15/ 17 1016.2R

$$
FLZ040-043>046-052-053-057-058-063-144-271200-
INTERIOR CENTRAL FLORIDA

CITY           SKY/WX    TMP DP  RH WIND       PRES   REMARKS
OCALA          PTCLDY    73  70  88 NE5       29.98R
THE VILLAGES     N/A     75  75 100 MISG      29.88R
LEESBURG       PTCLDY    75  72  90 NE6       29.98R
SANFORD        CLOUDY    75  71  87 NE5       29.97R
ORLANDO EXEC   PTCLDY    77  73  87 NE7       29.97R
ORLANDO INTL   MOCLDY    77  73  87 NE9       29.96R
KISSIMMEE      CLOUDY    78  74  87 NE7       29.97R
WINTER HAVEN   PTCLDY    77  72  84 NE6       29.97R
LAKELAND       CLEAR     77  73  88 NE7       29.96R
BARTOW         FAIR      77  77 100 NE8       29.96R
OKEECHOBEE     CLOUDY    75  75 100 N5        29.94R

$$
FLZ041-047-054-059-064-141-147-271200-
EAST CENTRAL FLORIDA

CITY           SKY/WX    TMP DP  RH WIND       PRES   REMARKS
ORMOND BEACH   CLEAR     79  73  83 E7        29.98
DAYTONA BEACH  MOCLDY    79  72  79 NE9       29.97S
DELAND         CLOUDY    73  72  94 N5        29.97R
NEW SMYRNA BEA PTCLDY    82  75  78 E8        29.98
JFK SPACE CTR  CLOUDY    78  72  82 E8        29.96R
TITUSVILLE     PTCLDY    81  77  89 NE9       29.97
CAPE CANAVERAL CLOUDY    80  73  76 NE8       29.95R
PATRICK AFB    PTCLDY    82  75  79 NE12      29.95R
MELBOURNE      MOCLDY    82  76  81 NE9       29.95R
VERO BEACH     PTCLDY    78  76  93 N6        29.94R
FT PIERCE      CLOUDY    78  76  93 NE3       29.93R
STUART         MOCLDY    84  79  84 E6        29.93S HX  96

STATION/POSITION SKY/WX   TEMP    WIND        PRES    WAVE   SWELL
                          AIR SEA DIR/SP/G            HT/PER HT/PER
                          (F)     (DEG/KT/KT) (MB)    (FT/S) (FT/S)
28.5N   80.2W              82 81   50/  8/ 10 1014.6R
TRIDENT PIER               79 84   30/  6/  8 1014.4R
28.4N   80.5W                 83                N/A     3/11   2/11
27.5N   80.2W                 84                N/A     3/ 7

$$
FLZ050-056-061-142-242-148-248-149-249-151-251-155-255-
160-260-271200-
WEST CENTRAL FLORIDA

CITY           SKY/WX    TMP DP  RH WIND       PRES   REMARKS
CRYSTAL RIVER  FAIR      73  72  94 NE3       29.97R
INVERNESS      FAIR      73  73 100 NE5       29.98R
BROOKSVILLE    MOCLDY    75  73  93 E6        29.97R
CLEARWATER AIR FAIR      77  73  88 E5        29.95R
ST PETE CLEARW PTCLDY    80  75  84 E9        29.95R
TAMPA INTL     PTCLDY    79  74  84 NE7       29.96R
TAMPA EXEC     PTCLDY    79  73  83 E3        29.96R
PLANT CITY     PTCLDY    79  75  89 NE6       29.98R
MACDILL AFB    PTCLDY    78  78 100 E10       29.95R
PETER O KNIGHT MOCLDY    81  77  89 E8        29.96R
ST PETERSBURG  MOCLDY    81  75  82 E15       29.94R
SARASOTA       CLOUDY    77  74  90 NE3       29.93R
VENICE         FAIR      77  75  94 NE6       29.94R

STATION/POSITION SKY/WX   TEMP    WIND        PRES    WAVE   SWELL
                          AIR SEA DIR/SP/G            HT/PER HT/PER
                          (F)     (DEG/KT/KT) (MB)    (FT/S) (FT/S)
27.3N   84.2W                 87                N/A     3/ 5
CLEARWATER BEACH           80 87   70/ 10/ 15 1013.6R
MIDDLE TAMPA BAY                   90/ 13/ 17 1013.8R
VENICE                     77 84   40/  6/  8 1013.4R

$$
FLZ066-069-070-075>078-162-262-165-265-271200-
SOUTHWEST FLORIDA AND KEYS

CITY           SKY/WX    TMP DP  RH WIND       PRES   REMARKS
PUNTA GORDA    CLOUDY    78  77  96 E6        29.95R
FT MYERS       CLOUDY    78  77  96 NE5       29.92R
SOUTHWEST INTL CLOUDY    78  76  93 CALM      29.92R
NAPLES         CLEAR     78  77  96 NE5       29.91R
MARCO ISLAND   PTCLDY   N/A N/A N/A NE7       29.91R
MARATHON       PTCLDY    85  76  74 E8        29.88R
KEY WEST NAS   CLOUDY    82  82 100 NE7       29.88R HX  96
KEY WEST INTL  MOCLDY    80  80 100 NE5       29.89R

STATION/POSITION SKY/WX   TEMP    WIND        PRES    WAVE   SWELL
                          AIR SEA DIR/SP/G            HT/PER HT/PER
                          (F)     (DEG/KT/KT) (MB)    (FT/S) (FT/S)
NAPLES                        87              1012.6R
26.0N   85.6W              83 86   90/ 14/ 16 1012.8R   3/ 6
DRY TORTUGAS               84      70/  9/ 10 1012.3R
SAND KEY                   84      80/  9/ 11 1012.3R
LONG KEY                   85 88   70/ 11/ 16 1012.1R

$$
FLZ067-068-071>074-168-172>174-271200-
SOUTHEAST FLORIDA

CITY           SKY/WX    TMP DP  RH WIND       PRES   REMARKS
W PALM BEACH   MOCLDY    84  76  76 E8        29.92R
BOCA RATON     CLEAR     84  79  84 E12       29.90  HX  96
FT LAUDER-EXEC PTCLDY    83  76  79 NE7       29.90R
FT LAUDERDALE  CLOUDY    84  77  79 NE10      29.88F
POMPANO BEACH  MOCLDY    83  77  82 NE8       29.90R
OPA LOCKA      CLOUDY    82  78  88 E6        29.90R
MIAMI          CLOUDY    84  78  82 E10       29.89S HX  95
WEST KENDALL   CLOUDY    78  77  96 E6        29.89R
HOMESTEAD      CLOUDY    81  76  85 N6        29.88S

STATION/POSITION SKY/WX   TEMP    WIND        PRES    WAVE   SWELL
                          AIR SEA DIR/SP/G            HT/PER HT/PER
                          (F)     (DEG/KT/KT) (MB)    (FT/S) (FT/S)
PORT EVERGLADES            85      60/ 10/ 14 1012.1R
VIRGINIA KEY               84 89   80/ 11/ 13 1012.1R
LAKE WORTH                 84 86   50/ 11/ 12 1012.5R
FOWEY ROCKS                82 86   30/ 12/ 13 1012.6R
SETTLEMENT POINT           85     100/  8/ 10 1013.8R

$$





USA.gov is the U.S. government's official web portal to all federal, state and local government web resources and services.